Regional Weather Roundup
Issued by NWS Sioux Falls, SD

Home | Current Version | Previous Version | Text Only | Print | Product List | Glossary On
Versions: 1 2 3 4 5 6 7 8 9 10 11 12 13 14 15 16 17 18 19 20 21 22 23 24 25 26 27 28 29 30 31 32 33 34 35 36 37 38 39 40 41 42 43 44 45 46 47 48 49 50
000
ASUS43 KFSD 181010
RWRFSD

WEATHER ROUNDUP FOR SE SOUTH DAKOTA/SW MINNESOTA/NW IOWA
NATIONAL WEATHER SERVICE SIOUX FALLS SD
500 AM CDT FRI AUG 18 2017

NOTE: "FAIR" INDICATES FEW OR NO CLOUDS BELOW 12,000 FEET WITH NO
SIGNIFICANT WEATHER AND OR OBSTRUCTIONS TO VISIBILITY.


SDZ038>040-050-052>070-181100-
SOUTHEAST SOUTH DAKOTA

CITY           SKY/WX    TMP DP  RH WIND       PRES   REMARKS
BROOKINGS      RAIN      61  57  87 SE8       29.91R
CHAMBERLAIN    CLEAR     60  60 100 E7        29.90F
HURON          CLOUDY    61  59  93 SW7       29.87F
MADISON        LGT RAIN  59  59 100 S5        29.92R
MITCHELL       LGT RAIN  62  60  93 SE6       29.90F
SIOUX FALLS    LGT RAIN  63  61  93 N6        29.89R
WINNER         FAIR      61  57  87 SW7       29.92S
YANKTON        CLOUDY    62  57  83 W6        29.90F
$$

MNZ071-072-080-081-089-090-097-098-181100-
SOUTHWEST MINNESOTA

CITY           SKY/WX    TMP DP  RH WIND       PRES   REMARKS
FAIRMONT       CLOUDY    61  60  97 CALM      29.91R
JACKSON        RAIN      61  59  94 CALM      29.93R
LUVERNE        LGT RAIN  61  55  82 N7        29.90S
MARSHALL       LGT RAIN  63  59  87 SW9       29.91R
MONTEVIDEO     CLOUDY    61  61 100 CALM      29.88R
PIPESTONE      RAIN      63  57  82 W5        29.93R
REDWOOD FALLS  CLOUDY    61  57  87 S3        29.87F
TRACY          RAIN      64  60  85 S8        29.92R
WINDOM         LGT RAIN  61  59  94 SW5       29.94R
WORTHINGTON    CLOUDY    62  59  90 N7        29.90F
$$

IAZ001>003-012>014-020>022-031-032-NEZ013-014-SDZ071-181100-
NORTHWEST IOWA

CITY           SKY/WX    TMP DP  RH WIND       PRES   REMARKS
CHEROKEE       LGT RAIN  62  62 100 E6        29.87S
DENISON        PTCLDY    63  61  94 SE7       29.88F
ESTHERVILLE    CLOUDY    60  60 100 SW3       29.91F
LE MARS        MOCLDY    68  61  77 E10       29.84F
ORANGE CITY    MOCLDY    64  63  94 E8        29.86F
SHELDON        DRIZZLE   61  61 100 CALM      29.88R
SIOUX CITY     MOCLDY    64  63  96 SE5       29.86F
SPENCER        CLOUDY    61  60  97 E7        29.87F
STORM LAKE     MOCLDY    63  61  94 E6        29.89F
$$

ABBREVIATIONS USED IN REMARKS
   TC - TEMPERATURE IN CELSIUS
  WCI - WIND CHILL INDEX
   HX - HEAT INDEX
  VSB - VISIBILITY





USA.gov is the U.S. government's official web portal to all federal, state and local government web resources and services.